Location: Newark
(45.5000°N, 11.4167°E)
Time: 07:33:15
(UTC+00:00)

Courier 1B - All Passes

Search period start: 24 August 2019 00:00
Search period end: 03 September 2019 00:00
Orbit: 962 x 1209 km, 28.3° (Epoch: 23 August)

Date Brightness Start Highest point End Pass type
(mag) Time Alt. Az. Time Alt. Az. Time Alt. Az.
24 Aug - 15:38:14 10° S 15:40:17 11° SSE 15:42:19 10° SE daylight
24 Aug - 17:29:01 10° SW 17:33:06 17° S 17:37:05 10° SE daylight
24 Aug - 19:22:33 10° SW 19:25:53 14° SSW 19:29:12 10° SSE visible
25 Aug - 16:35:37 10° SSW 16:39:38 16° S 16:43:33 10° SE daylight
25 Aug - 18:28:37 10° SW 18:32:28 16° S 18:36:14 10° SSE visible
26 Aug - 15:42:20 10° SSW 15:46:09 15° S 15:49:52 10° SE daylight
26 Aug - 17:34:50 10° SW 17:39:01 17° S 17:43:06 10° SE daylight
26 Aug - 19:30:02 10° SW 19:31:45 11° SSW 19:33:27 10° S visible
27 Aug - 14:49:16 10° SSW 14:52:40 14° SSE 14:56:00 10° SE daylight
27 Aug - 16:41:09 10° SW 16:45:32 18° S 16:49:49 10° SE daylight
27 Aug - 18:35:18 10° SW 18:38:20 13° SSW 18:41:19 10° SSE visible
28 Aug - 13:56:32 10° S 13:59:10 12° SSE 14:01:44 10° SE daylight
28 Aug - 15:47:32 10° SW 15:52:03 18° S 15:56:25 10° SE daylight
28 Aug - 17:41:06 10° SW 17:44:54 16° SSW 17:48:37 10° SSE daylight
29 Aug - 13:05:19 10° SSE 13:05:39 10° SSE 13:06:00 10° SSE daylight
29 Aug - 14:54:03 10° SSW 14:58:32 17° S 15:02:52 10° SE daylight
29 Aug - 16:47:06 10° SW 16:51:26 17° S 16:55:38 10° SSE daylight
30 Aug - 14:00:42 10° SSW 14:05:00 16° S 14:09:09 10° SE daylight
30 Aug - 15:53:15 10° SW 15:57:56 19° S 16:02:28 10° SE daylight
30 Aug - 17:48:06 10° SW 17:50:44 12° SSW 17:53:19 10° S daylight
31 Aug - 13:07:35 10° SSW 13:11:27 15° SSE 13:15:13 10° SE daylight
31 Aug - 14:59:30 10° SW 15:04:25 19° S 15:09:08 10° SE daylight
31 Aug - 16:53:34 10° SW 16:57:17 15° SSW 17:00:54 10° SSE daylight
01 Sep - 12:14:49 10° S 12:17:54 13° SSE 12:20:56 10° SE daylight
01 Sep - 14:05:52 10° SW 14:10:51 19° S 14:15:40 10° SE daylight
01 Sep - 15:59:23 10° SW 16:03:49 17° S 16:08:04 10° SSE daylight
02 Sep - 11:23:05 10° SSE 11:24:21 10° SSE 11:25:37 10° SSE daylight
02 Sep - 13:12:22 10° SSW 13:17:17 18° S 13:22:03 10° SE daylight
02 Sep - 15:05:23 10° SW 15:10:17 19° S 15:14:59 10° SE daylight
02 Sep - 17:01:08 10° SW 17:03:04 11° SSW 17:04:59 10° S daylight
